This demonstration page uses our WeatherBlox Daily Observations layout. Learn more.

Left ArrowRight Arrow

36.19886, -115.1175

Hourly Observations for February 4, 2021

Temp ( °F °C ) Dew Point ( °F °C ) Humidity (%) Winds ( mph kmh ) Pressure ( in mb ) Visibility ( mi km ) Precip ( " mm )
12:53 am 00:53 Clear 55 12.8 15 -9.4 20 20 NW 16 26 30.04 1017 10 16 N/A
1:53 am 01:53 Clear 52 11.1 16 -8.9 24 24 N 12 19 30.06 1018 10 16 N/A
2:53 am 02:53 Clear 51 10.6 17 -8.3 26 26 N 13 20 30.08 1019 10 16 N/A
3:53 am 03:53 Clear 51 10.6 18 -7.8 27 27 NNW 14 22 30.09 1019 10 16 N/A
4:53 am 04:53 Clear 50 10 19 -7.2 29 29 N 12 19 30.11 1020 10 16 N/A
5:53 am 05:53 Clear 48 8.9 19 -7.2 32 32 NNW 17 28 30.12 1020 10 16 N/A
6:53 am 06:53 Sunny 46 7.8 19 -7.2 34 34 NNW 10 17 30.16 1021 10 16 N/A
7:53 am 07:53 Sunny 49 9.4 19 -7.2 31 31 NNW 12 19 30.19 1023 10 16 N/A
8:53 am 08:53 Sunny 52 11.1 18 -7.8 26 26 NW 18 30 30.21 1023 10 16 N/A
9:53 am 09:53 Sunny 54 12.2 18 -7.8 24 24 NNW 22 35 30.22 1023 10 16 N/A
10:53 am 10:53 Sunny 56 13.3 16 -8.9 21 21 NW 18 30 30.21 1023 10 16 N/A
11:53 am 11:53 Sunny 58 14.4 15 -9.4 18 18 NNW 16 26 30.19 1022 10 16 N/A
12:53 pm 12:53 Sunny 59 15 15 -9.4 18 18 NW 20 31 30.16 1021 10 16 N/A
1:53 pm 13:53 Sunny 60 15.6 13 -10.6 16 16 NNW 17 28 30.15 1021 10 16 N/A
2:53 pm 14:53 Sunny 60 15.6 13 -10.6 16 16 NW 17 28 30.14 1021 10 16 N/A
3:53 pm 15:53 Sunny 60 15.6 12 -11.1 15 15 NW 17 28 30.14 1021 10 16 N/A
4:53 pm 16:53 Sunny 59 15 12 -11.1 15 15 NW 13 20 30.14 1021 10 16 N/A
5:53 pm 17:53 Clear 57 13.9 13 -10.6 17 17 NNE 7 11 30.17 1022 10 16 N/A
6:53 pm 18:53 Clear 56 13.3 13 -10.6 18 18 N 8 13 30.19 1022 10 16 N/A
7:53 pm 19:53 Clear 54 12.2 14 -10 20 20 NNW 7 11 30.21 1023 10 16 N/A
8:53 pm 20:53 Clear 54 12.2 14 -10 20 20 NW 7 11 30.21 1023 10 16 N/A
9:53 pm 21:53 Clear 50 10 15 -9.4 25 25 WNW 6 9 30.22 1023 10 16 N/A
10:53 pm 22:53 Clear 47 8.3 16 -8.9 29 29 NW 3 6 30.23 1024 10 16 N/A
11:53 pm 23:53 Clear 48 8.9 16 -8.9 28 28 VRB 3 6 30.22 1024 10 16 N/A

Powered by AerisWeather